When you browse on this site, cookies collect data to enhance your experience and personalize the content and advertising you see.
Visit our Privacy Policy to learn more. By continuing to use the site, you agree to this use of cookies and data.
  • In Slovakia
  • List of Countries
  • For 7 days
  • Water Temperature
  • Satellite Maps
  • Weather Map
  • Weather Widgets
  • user-avatar
    Login

    Hourly Weather Kipungo

    Today, 19 November, Monday

    Time Temperature Precipitation Wind Pressure Humidity
    00:00 +24°C° 0 mm 2 mps 654 mmHg 61%
    01:00 +23°C° 0 mm 2 mps 653 mmHg 63%
    02:00 +23°C° 0 mm 2 mps 653 mmHg 65%
    03:00 +21°C° 0 mm 2 mps 653 mmHg 67%
    04:00 +21°C° 0 mm 2 mps 653 mmHg 69%
    05:00 +23°C° 0 mm 1 mps 653 mmHg 65%
    06:00 +24°C° 0 mm 1 mps 654 mmHg 61%
    07:00 +25°C° 0 mm 1 mps 654 mmHg 56%
    08:00 +29°C° 0 mm 1 mps 655 mmHg 45%
    09:00 +32°C° 0 mm 0 mps 656 mmHg 34%
    10:00 +36°C° 0 mm 0 mps 657 mmHg 22%
    11:00 +39°C° 0 mm 1 mps 656 mmHg 20%
    12:00 +39°C° 0 mm 2 mps 656 mmHg 18%
    13:00 +39°C° 0 mm 2 mps 655 mmHg 16%
    14:00 +38°C° 0 mm 2 mps 654 mmHg 17%
    15:00 +37°C° 0 mm 2 mps 654 mmHg 19%
    16:00 +36°C° 0 mm 2 mps 653 mmHg 20%
    17:00 +35°C° 0 mm 2 mps 653 mmHg 24%
    18:00 +32°C° 0 mm 2 mps 653 mmHg 28%
    19:00 +30°C° 0 mm 2 mps 653 mmHg 32%
    20:00 +29°C° 0.1 mm 2 mps 654 mmHg 38%
    21:00 +27°C° 0.1 mm 3 mps 654 mmHg 45%
    22:00 +26°C° 0.1 mm 3 mps 654 mmHg 52%
    23:00 +25°C° 0 mm 3 mps 654 mmHg 57%

    Tomorrow, 20 November, Tuesday

    Time Temperature Precipitation Wind Pressure Humidity
    00:00 +24°C° 0 mm 2 mps 654 mmHg 62%
    01:00 +23°C° 0 mm 2 mps 653 mmHg 67%
    02:00 +21°C° 0.1 mm 2 mps 653 mmHg 68%
    03:00 +21°C° 0.1 mm 2 mps 653 mmHg 69%
    04:00 +21°C° 0.1 mm 2 mps 653 mmHg 70%
    05:00 +23°C° 0 mm 1 mps 653 mmHg 64%
    06:00 +24°C° 0 mm 1 mps 654 mmHg 59%
    07:00 +25°C° 0 mm 1 mps 654 mmHg 53%
    08:00 +28°C° 0 mm 1 mps 655 mmHg 44%
    09:00 +31°C° 0 mm 1 mps 656 mmHg 35%
    10:00 +35°C° 0 mm 1 mps 656 mmHg 26%
    11:00 +37°C° 0 mm 1 mps 656 mmHg 23%
    12:00 +40°C° 0 mm 1 mps 656 mmHg 20%
    13:00 +42°C° 0 mm 1 mps 656 mmHg 17%
    14:00 +39°C° 0 mm 1 mps 655 mmHg 20%
    15:00 +37°C° 0 mm 2 mps 654 mmHg 22%
    16:00 +35°C° 0 mm 3 mps 652 mmHg 25%
    17:00 +32°C° 0.2 mm 2 mps 653 mmHg 30%
    18:00 +30°C° 0.2 mm 2 mps 653 mmHg 35%
    19:00 +28°C° 0.2 mm 2 mps 653 mmHg 41%
    20:00 +27°C° 0.2 mm 3 mps 654 mmHg 47%
    21:00 +26°C° 0.2 mm 3 mps 654 mmHg 54%
    22:00 +25°C° 0.2 mm 4 mps 655 mmHg 61%
    23:00 +24°C° 0.1 mm 3 mps 654 mmHg 63%

    Day after tomorrow, 21 November, Wednesday

    Time Temperature Precipitation Wind Pressure Humidity
    00:00 +24°C° 0.1 mm 3 mps 654 mmHg 66%
    01:00 +22°C° 0.1 mm 3 mps 654 mmHg 69%
    02:00 +21°C° 0 mm 3 mps 653 mmHg 69%
    03:00 +21°C° 0 mm 2 mps 653 mmHg 70%
    04:00 +20°C° 0 mm 2 mps 652 mmHg 71%
    05:00 +21°C° 0 mm 2 mps 653 mmHg 66%
    06:00 +23°C° 0 mm 2 mps 654 mmHg 61%
    07:00 +24°C° 0 mm 2 mps 654 mmHg 57%
    08:00 +28°C° 0 mm 2 mps 655 mmHg 44%
    09:00 +32°C° 0 mm 1 mps 656 mmHg 32%
    10:00 +36°C° 0 mm 1 mps 657 mmHg 20%
    11:00 +37°C° 0 mm 1 mps 657 mmHg 18%
    12:00 +39°C° 0 mm 1 mps 656 mmHg 16%
    13:00 +41°C° 0 mm 1 mps 656 mmHg 14%
    14:00 +39°C° 0 mm 2 mps 655 mmHg 16%
    15:00 +37°C° 0 mm 2 mps 654 mmHg 18%
    16:00 +36°C° 0 mm 2 mps 653 mmHg 20%
    17:00 +34°C° 0 mm 3 mps 653 mmHg 26%
    18:00 +31°C° 0 mm 3 mps 653 mmHg 33%
    19:00 +28°C° 0 mm 3 mps 653 mmHg 40%
    20:00 +27°C° 0 mm 3 mps 653 mmHg 46%
    21:00 +26°C° 0 mm 3 mps 654 mmHg 53%
    22:00 +24°C° 0 mm 3 mps 654 mmHg 59%
    23:00 +24°C° 0 mm 3 mps 654 mmHg 63%

    22 November, Thursday

    Time Temperature Precipitation Wind Pressure Humidity
    00:00 +23°C° 0 mm 2 mps 653 mmHg 67%
    01:00 +21°C° 0 mm 2 mps 653 mmHg 71%
    02:00 +21°C° 0 mm 2 mps 653 mmHg 73%
    03:00 +20°C° 0 mm 2 mps 652 mmHg 74%
    04:00 +20°C° 0 mm 1 mps 652 mmHg 76%
    05:00 +22°C° 0 mm 1 mps 653 mmHg 70%
    06:00 +23°C° 0 mm 1 mps 653 mmHg 64%
    07:00 +24°C° 0 mm 1 mps 654 mmHg 57%
    08:00 +28°C° 0 mm 1 mps 655 mmHg 46%
    09:00 +32°C° 0 mm 1 mps 656 mmHg 34%
    10:00 +36°C° 0 mm 1 mps 657 mmHg 22%
    11:00 +36°C° 0 mm 0 mps 656 mmHg 19%
    12:00 +38°C° 0 mm 0 mps 656 mmHg 16%
    13:00 +41°C° 0 mm 0 mps 656 mmHg 14%
    14:00 +41°C° 0 mm 1 mps 655 mmHg 15%
    15:00 +39°C° 0 mm 1 mps 654 mmHg 16%
    16:00 +36°C° 0 mm 1 mps 653 mmHg 18%
    17:00 +35°C° 0 mm 2 mps 653 mmHg 24%
    18:00 +33°C° 0 mm 3 mps 653 mmHg 30%
    19:00 +29°C° 0 mm 4 mps 653 mmHg 36%
    20:00 +28°C° 0 mm 3 mps 653 mmHg 44%
    21:00 +26°C° 0 mm 3 mps 654 mmHg 52%
    22:00 +24°C° 0 mm 3 mps 654 mmHg 60%
    23:00 +24°C° 0 mm 3 mps 653 mmHg 64%

    23 November, Friday

    Time Temperature Precipitation Wind Pressure Humidity
    00:00 +23°C° 0 mm 2 mps 653 mmHg 68%
    01:00 +21°C° 0 mm 2 mps 652 mmHg 72%
    02:00 +22°C° 0 mm 1 mps 652 mmHg 74%
    03:00 +21°C° 0 mm 1 mps 652 mmHg 75%
    04:00 +21°C° 0 mm 1 mps 652 mmHg 77%
    05:00 +22°C° 0 mm 1 mps 653 mmHg 71%
    06:00 +23°C° 0 mm 1 mps 654 mmHg 66%
    07:00 +24°C° 0 mm 1 mps 654 mmHg 60%
    08:00 +28°C° 0 mm 1 mps 655 mmHg 48%
    09:00 +32°C° 0 mm 1 mps 656 mmHg 36%
    10:00 +36°C° 0 mm 1 mps 657 mmHg 24%
    11:00 +39°C° 0 mm 1 mps 656 mmHg 21%
    12:00 +41°C° 0 mm 1 mps 656 mmHg 18%
    13:00 +43°C° 0 mm 1 mps 656 mmHg 15%
    14:00 +41°C° 0 mm 1 mps 655 mmHg 16%
    15:00 +39°C° 0 mm 1 mps 654 mmHg 16%
    16:00 +37°C° 0 mm 1 mps 653 mmHg 17%
    17:00 +35°C° 0 mm 2 mps 653 mmHg 22%
    18:00 +33°C° 0 mm 3 mps 653 mmHg 28%
    19:00 +30°C° 0 mm 4 mps 653 mmHg 33%
    20:00 +28°C° 0 mm 4 mps 653 mmHg 40%
    21:00 +27°C° 0 mm 3 mps 653 mmHg 47%
    22:00 +25°C° 0 mm 3 mps 653 mmHg 54%
    23:00 +24°C° 0 mm 3 mps 653 mmHg 58%

    24 November, Saturday

    Time Temperature Precipitation Wind Pressure Humidity
    00:00 +23°C° 0 mm 2 mps 653 mmHg 62%
    01:00 +21°C° 0 mm 2 mps 652 mmHg 66%
    02:00 +21°C° 0 mm 2 mps 652 mmHg 68%
    03:00 +20°C° 0 mm 2 mps 652 mmHg 70%
    04:00 +20°C° 0 mm 1 mps 652 mmHg 72%
    05:00 +21°C° 0 mm 1 mps 653 mmHg 67%
    06:00 +23°C° 0 mm 1 mps 653 mmHg 61%
    07:00 +24°C° 0 mm 1 mps 654 mmHg 56%
    08:00 +27°C° 0 mm 1 mps 655 mmHg 44%
    09:00 +31°C° 0 mm 1 mps 656 mmHg 32%
    10:00 +35°C° 0 mm 1 mps 656 mmHg 20%
    11:00 +36°C° 0 mm 1 mps 656 mmHg 18%
    12:00 +39°C° 0 mm 1 mps 655 mmHg 15%
    13:00 +41°C° 0 mm 1 mps 655 mmHg 12%
    14:00 +40°C° 0 mm 1 mps 654 mmHg 12%
    15:00 +40°C° 0 mm 1 mps 654 mmHg 12%
    16:00 +39°C° 0 mm 1 mps 653 mmHg 11%
    17:00 +36°C° 0 mm 2 mps 653 mmHg 16%
    18:00 +34°C° 0 mm 3 mps 653 mmHg 20%
    19:00 +30°C° 0 mm 3 mps 653 mmHg 24%
    20:00 +28°C° 0 mm 3 mps 653 mmHg 31%
    21:00 +26°C° 0 mm 3 mps 653 mmHg 38%
    22:00 +25°C° 0 mm 3 mps 653 mmHg 45%
    23:00 +22°C° 0 mm 3 mps 653 mmHg 49%
    Show more